Вернуться в каталог

JIGUANG XINGZUO 01 XING

АктивенНаукаSSO
NORAD 59917·PAYLOAD·🇨🇳 China
Это название спутника еще не подтверждено официальными источниками.

Запущен May 30, 2024 с Jiuquan Satellite Launch Center

Loading…

Ближайшие Пролёты (ближайшие 24 часа)

TLE

СвежийSource: Space-Track

Эпоха: Sep 14, 2026, 15:14 UTC

1 59917U 24105A   26257.63475628  .00002037  00000-0  10500-3 0  9997
2 59917  97.5835 272.9717 0011537 279.7913  80.2017 15.17489689126599

Отслеживайте JIGUANG XINGZUO 01 XING в реальном времени с AllMySat

Download on the App Store